Weather History for KSNK - May, 2013

Change the Weather History Date:

Monday, May 20, 2013

  Actual Average Record
Temperature  
Mean Temperature 80 °F -  
Max Temperature 95 °F 87 °F 100 °F (1927)
Min Temperature 65 °F 59 °F 42 °F (1911)
Cooling Degree Days 15    
Growing Degree Days 30 (Base 50)    
Moisture  
Dew Point 21 °F    
Average Humidity 15    
Maximum Humidity 56    
Minimum Humidity 4    
Precipitation  
Precipitation 0.00 in - - ()
Sea Level Pressure  
Sea Level Pressure 29.76 in    
Wind  
Wind Speed 8 mph (SW)    
Max Wind Speed 18 mph    
Max Gust Speed 24 mph    
Visibility 10 miles    
Events      
Averages and records for this station are not official NWS values.
T = Trace of Precipitation, MM = Missing Value Source: NWS Daily Summary

Daily Weather History Graph

Daily Weather History Graph

Search for Another Location

Airport or City:

Trip Planner

Search our weather history database for the weather conditions in past years. The results will help you decide how hot, cold, wet, or windy it might be!

Date:

Astronomy

May. 20, 2013 Rise Set
Actual Time 6:41 AM CDT 8:39 PM CDT
Civil Twilight 6:14 AM CDT 9:06 PM CDT
Nautical Twilight 5:41 AM CDT 9:40 PM CDT
Astronomical Twilight 5:05 AM CDT 10:15 PM CDT
Moon 4:03 PM CDT (5/20) 3:21 AM CDT (5/20)
Length of Visible Light 14h 52m
Length of Day
13h 57m
Waxing Gibbous, 75% of the Moon is Illuminated
May 20
Waxing Gibbous
May 24
Full
May 31
Last Quarter
Jun 8
New
Jun 16
First Quarter

Hourly Weather History & Observations

Time (CDT) Temp. Heat Index Dew Point Humidity Pressure Visibility Wind Dir Wind Speed Gust Speed Precip Events Conditions
12:15 AM 76.1 °F - 18.1 °F 11% 29.76 in 10.0 mi SSE 9.2 mph - N/A   Clear
12:35 AM 75.9 °F - 17.6 °F 11% 29.77 in 10.0 mi SSE 6.9 mph - N/A   Clear
12:55 AM 75.6 °F - 18.7 °F 12% 29.77 in 10.0 mi SSE 6.9 mph - N/A   Clear
1:15 AM 74.5 °F - 21.6 °F 14% 29.76 in 10.0 mi SSE 5.8 mph - N/A   Clear
1:35 AM 74.5 °F - 22.6 °F 14% 29.76 in 10.0 mi South 4.6 mph - N/A   Clear
1:55 AM 72.1 °F - 22.3 °F 15% 29.76 in 10.0 mi SSE 9.2 mph - N/A   Clear
2:15 AM 71.1 °F - 22.6 °F 16% 29.76 in 10.0 mi South 6.9 mph - N/A   Clear
2:35 AM 70.0 °F - 22.6 °F 17% 29.75 in 10.0 mi WSW 3.5 mph - N/A   Clear
3:15 AM 69.6 °F - 22.6 °F 17% 29.75 in 10.0 mi West 4.6 mph - N/A   Clear
3:35 AM 71.1 °F - 19.9 °F 14% 29.74 in 10.0 mi West 3.5 mph - N/A   Clear
3:55 AM 71.1 °F - 20.3 °F 15% 29.74 in 10.0 mi Calm Calm - N/A   Clear
4:35 AM 67.1 °F - 25.2 °F 21% 29.74 in 7.0 mi East 5.8 mph - N/A   Clear
4:55 AM 65.5 °F - 25.7 °F 22% 29.76 in 10.0 mi ESE 9.2 mph - N/A   Clear
5:15 AM 68.0 °F - 29.1 °F 23% 29.76 in 10.0 mi ESE 9.2 mph - N/A   Clear
5:35 AM 69.4 °F - 32.4 °F 25% 29.77 in 10.0 mi SSE 6.9 mph - N/A   Clear
5:55 AM 67.6 °F - 32.5 °F 27% 29.77 in 10.0 mi WSW 4.6 mph - N/A   Clear
6:15 AM 66.9 °F - 32.0 °F 27% 29.79 in 10.0 mi WSW 3.5 mph - N/A   Clear
6:35 AM 68.5 °F - 32.5 °F 26% 29.79 in 10.0 mi SW 4.6 mph - N/A   Clear
7:15 AM 70.9 °F - 32.4 °F 24% 29.80 in 10.0 mi South 6.9 mph - N/A   Clear
7:35 AM 72.9 °F - 35.8 °F 26% 29.80 in 10.0 mi South 6.9 mph - N/A   Clear
7:55 AM 74.5 °F - 39.4 °F 28% 29.81 in 10.0 mi South 6.9 mph - N/A   Clear
8:15 AM 74.5 °F - 39.7 °F 29% 29.81 in 10.0 mi South 8.1 mph - N/A   Scattered Clouds
8:35 AM 75.0 °F - 42.3 °F 31% 29.81 in 10.0 mi SSW 9.2 mph - N/A   Mostly Cloudy
9:15 AM 77.4 °F - 53.6 °F 44% 29.82 in 10.0 mi South 11.5 mph 16.1 mph N/A   Mostly Cloudy
9:35 AM 78.3 °F - 59.0 °F 51% 29.82 in 10.0 mi South 12.7 mph - N/A   Scattered Clouds
9:55 AM 79.7 °F - 63.0 °F 56% 29.81 in 10.0 mi South 18.4 mph - N/A   Clear
10:35 AM 82.0 °F 83.1 °F 62.6 °F 52% 29.81 in 10.0 mi SSW 15.0 mph 24.2 mph N/A   Clear
10:55 AM 83.5 °F 83.7 °F 60.6 °F 46% 29.80 in 10.0 mi SSW 13.8 mph 21.9 mph N/A   Clear
11:15 AM 86.9 °F 86.5 °F 59.5 °F 40% 29.80 in 10.0 mi SSW 16.1 mph 23.0 mph N/A   Clear
11:35 AM 89.6 °F 87.5 °F 54.5 °F 30% 29.80 in 10.0 mi WSW 16.1 mph 23.0 mph N/A   Clear
11:55 AM 89.6 °F - 45.7 °F 22% 29.80 in 10.0 mi West 15.0 mph 18.4 mph N/A   Clear
12:15 PM 89.6 °F - 32.9 °F 13% 29.80 in 10.0 mi West 15.0 mph 21.9 mph N/A   Clear
12:35 PM 89.6 °F - 20.1 °F 8% 29.80 in 10.0 mi WSW 11.5 mph 18.4 mph N/A   Clear
12:55 PM 90.9 °F - 15.6 °F 6% 29.80 in 10.0 mi West 17.3 mph 21.9 mph N/A   Clear
1:15 PM 91.6 °F - 12.6 °F 5% 29.79 in 10.0 mi West 10.4 mph 16.1 mph N/A   Clear
1:55 PM 93.6 °F - 10.8 °F 5% 29.78 in 10.0 mi West 13.8 mph 19.6 mph N/A   Clear
2:15 PM 94.3 °F - 8.4 °F 4% 29.77 in 10.0 mi West 9.2 mph 12.7 mph N/A   Clear
2:35 PM 94.6 °F - 6.8 °F 4% 29.77 in 10.0 mi SW 12.7 mph 18.4 mph N/A   Clear
2:55 PM 94.6 °F - 6.1 °F 4% 29.76 in 10.0 mi West 6.9 mph 17.3 mph N/A   Clear
3:15 PM 94.6 °F - 6.4 °F 4% 29.76 in 10.0 mi WSW 11.5 mph 16.1 mph N/A   Clear
3:35 PM 94.6 °F - 5.5 °F 4% 29.75 in 10.0 mi WSW 9.2 mph 19.6 mph N/A   Clear
3:55 PM 95.4 °F - 7.0 °F 4% 29.74 in 10.0 mi WSW 8.1 mph 20.7 mph N/A   Clear
4:15 PM 95.0 °F - 6.1 °F 4% 29.74 in 10.0 mi SW 13.8 mph 18.4 mph N/A   Clear
4:35 PM 95.2 °F - 5.0 °F 4% 29.73 in 10.0 mi WSW 16.1 mph 20.7 mph N/A   Clear
4:55 PM 95.5 °F - 2.1 °F 4% 29.72 in 10.0 mi WSW 13.8 mph 24.2 mph N/A   Clear
5:15 PM 95.5 °F - 4.3 °F 4% 29.72 in 10.0 mi SW 11.5 mph 23.0 mph N/A   Clear
5:35 PM 95.4 °F - 4.6 °F 4% 29.71 in 10.0 mi WSW 12.7 mph 18.4 mph N/A   Clear
5:55 PM 95.2 °F - 5.4 °F 4% 29.71 in 10.0 mi WSW 12.7 mph - N/A   Clear
6:15 PM 95.4 °F - 1.9 °F 4% 29.70 in 10.0 mi SW 10.4 mph 21.9 mph N/A   Clear
6:35 PM 95.5 °F - -2.4 °F 4% 29.70 in 10.0 mi SW 16.1 mph 21.9 mph N/A   Clear
6:55 PM 95.0 °F - -2.4 °F 4% 29.70 in 10.0 mi SW 12.7 mph 19.6 mph N/A   Clear
7:15 PM 94.6 °F - -3.6 °F 4% 29.69 in 10.0 mi WSW 17.3 mph - N/A   Clear
7:35 PM 94.6 °F - -1.7 °F 4% 29.69 in 10.0 mi SW 10.4 mph - N/A   Clear
7:55 PM 94.6 °F - 0.7 °F 4% 29.70 in 10.0 mi WSW 8.1 mph - N/A   Clear
8:15 PM 92.5 °F - 6.4 °F 4% 29.70 in 10.0 mi SW 5.8 mph - N/A   Clear
8:35 PM 90.0 °F - 7.9 °F 5% 29.70 in 10.0 mi SSW 6.9 mph - N/A   Clear
9:15 PM 83.8 °F - 10.8 °F 6% 29.72 in 10.0 mi Calm Calm - N/A   Clear
9:35 PM 83.1 °F - 9.9 °F 6% 29.73 in 10.0 mi SW 3.5 mph - N/A   Clear
9:55 PM 82.9 °F - 9.0 °F 6% 29.73 in 10.0 mi SSW 3.5 mph - N/A   Clear
10:15 PM 82.2 °F - 9.3 °F 6% 29.74 in 10.0 mi SW 3.5 mph - N/A   Clear
10:35 PM 81.5 °F - 9.9 °F 7% 29.74 in 10.0 mi West 5.8 mph - N/A   Clear
10:55 PM 80.8 °F - 9.0 °F 7% 29.74 in 10.0 mi West 5.8 mph - N/A   Clear
11:15 PM 80.8 °F - 8.6 °F 6% 29.74 in 10.0 mi WNW 6.9 mph - N/A   Clear
11:35 PM 80.8 °F - 9.5 °F 7% 29.75 in 10.0 mi Calm Calm - N/A   Clear
11:55 PM 79.9 °F - 9.0 °F 7% 29.75 in 10.0 mi SSE 4.6 mph - N/A   Clear